Miscellaneous Local Product
Issued by NWS Hastings, NE

Home | Current Version | Previous Version | Text Only | Print | Product List | Glossary On
Versions: 1 2 3 4 5 6 7 8 9 10 11 12 13 14 15 16 17 18 19 20 21 22 23 24 25 26 27 28 29 30 31 32 33 34 35 36 37 38 39 40 41 42 43 44 45 46 47 48 49 50
297
AXUS43 KGID 251702
MISGRI

GID CWA HOURLY WEATHER ROUNDUP
NATIONAL WEATHER SERVICE HASTINGS NE
1200 PM CDT WED MAY 25 2016

NOTE: "FAIR" INDICATES FEW OR NO CLOUDS BELOW 12,000 FEET WITH NO
SIGNIFICANT WEATHER AND/OR OBSTRUCTIONS TO VISIBILITY.

...SOUTH CENTRAL NEBRASKA...

CITY           SKY/WX    TMP DP  RH WIND       PRES   REMARKS
GRAND ISLAND   SUNNY     74  60  61 S10       29.86R
HASTINGS       SUNNY     72  59  63 SE15      29.85F
KEARNEY        SUNNY     72  59  64 S13       29.88S
ORD            SUNNY     73  60  63 SW12      29.86R
YORK           SUNNY     73  61  64 S18G25    29.84F
AURORA         SUNNY     74  59  59 S15G21    29.85R
LEXINGTON      SUNNY     72  58  62 SE8       29.89S
HOLDREGE       SUNNY     70  58  67 SE12      29.88R
HEBRON         MOSUNNY   70  62  77 SE15      29.87F

...NEBRASKA PANHANDLE...

CITY           SKY/WX    TMP DP  RH WIND       PRES   REMARKS
CHADRON        SUNNY     68  47  46 W15       29.90R
ALLIANCE       SUNNY     69  44  40 W18       29.92R
SCOTTSBLUFF    SUNNY     68  42  38 W9        29.94S
SIDNEY         SUNNY     68  53  58 S14       29.97S

...WESTERN AND NORTH CENTRAL NEBRASKA...

CITY           SKY/WX    TMP DP  RH WIND       PRES   REMARKS
VALENTINE      SUNNY     69  55  60 W16       29.85S
AINSWORTH      SUNNY     71  57  61 W13       29.85S
ONEILL         SUNNY     75  55  50 SW15G23   29.84R
BROKEN BOW     SUNNY     71  59  65 S10       29.89R
IMPERIAL       MOSUNNY   68  55  63 S5        29.94R
NORTH PLATTE   SUNNY     72  54  53 SW5       29.90F
MCCOOK         SUNNY     74  57  55 VRB3      29.89S

...EASTERN NEBRASKA...

CITY           SKY/WX    TMP DP  RH WIND       PRES   REMARKS
NORFOLK        MOSUNNY   73  61  65 SW10      29.83F
SO SIOUX CITY  CLOUDY    76  63  64 SW10      29.83F
TEKAMAH        PTSUNNY   73  61  65 S14       29.84R
COLUMBUS       SUNNY     73  57  56 S15G21    29.85F
ALBION         SUNNY     73  61  66 S12       29.85R
OMAHA EPPLEY   CLOUDY    71  61  70 S13       29.83F
OFFUTT AFB     CLOUDY    69  62  78 S7        29.83F
MILLARD        CLOUDY    69  61  75 S8        29.84F
LINCOLN        SUNNY     73  61  65 S10G16    29.85F
NEBRASKA CITY  CLOUDY    70  62  77 SW15G21   29.86R
BEATRICE       SUNNY     73  62  70 S15       29.85F
FALLS CITY     CLOUDY    71  64  78 E10       29.87F

...NORTHERN KANSAS...

CITY           SKY/WX    TMP DP  RH WIND       PRES   REMARKS
GOODLAND       CLOUDY    64  55  72 CALM      29.94R
HILL CITY      CLOUDY    65  59  81 E10       29.88F
NORTON         CLOUDY    70  55  60 SE9       29.87S
PHILLIPSBURG   CLOUDY    70  59  68 E13       29.88S
SMITH CENTER   CLOUDY    68  61  77 SE12      29.87S
HAYS           CLOUDY    59  57  94 NE13      29.85S
RUSSELL        CLOUDY    66  63  90 NE12      29.84F
CONCORDIA      CLOUDY    66  60  81 E10       29.88F
SALINA         CLOUDY    77  70  79 S13       29.85S
TOPEKA         CLOUDY    73  63  70 NE7       29.91R



USA.gov is the U.S. government's official web portal to all federal, state and local government web resources and services.